{"data":{"norad_id":55925,"intl_designator":"2023-037M","name":"STARLINK-5922","alt_names":[],"object_type":"PAYLOAD","status":"ACTIVE","operator":null,"country":"US","launch_date":"2023-03-17","launch_site_code":"AFWTR","launch_vehicle":null,"mission":null,"orbit_class":"UNKNOWN","rcs_meters":null,"size_class":null,"mass_kg":null,"dimensions":null,"purposes":["comms"],"wikipedia_slug":null,"has_3d_model":false,"image_url":null,"decayed_at":null,"tle_current":{"epoch":"2026-09-20T04:36:39.121344Z","epoch_age_seconds":132805,"freshness":"FRESH","line1":"1 55925U 23037M   26263.19211946 -.00000343  00000+0 -20946-4 0  9999","line2":"2 55925  69.9985 173.9730 0003468 269.8608  90.2154 14.98327375192624","mean_motion":14.98327375,"eccentricity":0.0003468,"inclination_deg":69.9985,"raan_deg":173.973,"arg_perigee_deg":269.8608,"mean_anomaly_deg":90.2154,"bstar":-2.0946e-5,"rev_number":19262,"period_min":96.107167500694,"perigee_km":569.65367884247,"apogee_km":574.474338262,"semimajor_km":6950.2010085522,"source":"CELESTRAK","updated_at":"2026-09-21T09:00:33.324293Z"}}}